| time (UTC) | temp C | wind direction | speed KPH | gust KPH | rain 1hr cm | rain 24hr cm | rain mn cm | humidity % | barometer mb |
| 20260508175748 | 18 | 248 | 6.4 | 0.0 | 403.30 | 0.00 | 0.00 | 53 | 1012.3 |
| 20260508175248 | 17 | 15 | 0.0 | 0.0 | 403.30 | 0.00 | 0.00 | 52 | 1012.6 |
| 20260508174748 | 17 | 87 | 0.0 | 0.0 | 403.30 | 0.00 | 0.00 | 50 | 1012.6 |
| 20260508174248 | 17 | 14 | 1.6 | 0.0 | 403.30 | 0.00 | 0.00 | 49 | 1012.8 |
| 20260508173748 | 18 | 311 | 8.0 | 0.0 | 403.30 | 0.00 | 0.00 | 49 | 1012.9 |
| 20260508173249 | 18 | 346 | 3.2 | 0.0 | 403.30 | 0.00 | 0.00 | 50 | 1013.0 |
| 20260508173212 | 17 | 300 | 11.3 | 0.0 | 403.30 | 0.00 | 0.00 | 50 | 1013.3 |
| 20260508172248 | 17 | 300 | 11.3 | 0.0 | 403.30 | 0.00 | 0.00 | 50 | 1013.3 |
| 20260508171748 | 17 | 309 | 3.2 | 0.0 | 403.30 | 0.00 | 0.00 | 52 | 1013.3 |
| 20260508171248 | 17 | 31 | 4.8 | 0.0 | 403.30 | 0.00 | 0.00 | 51 | 1013.4 |
| 20260508170748 | 17 | 315 | 1.6 | 0.0 | 403.30 | 0.00 | 0.00 | 53 | 1013.5 |
| 20260508165248 | 16 | 295 | 4.8 | 0.0 | 403.30 | 0.00 | 0.00 | 51 | 1014.0 |
| 20260508165240 | 16 | 339 | 4.8 | 0.0 | 403.30 | 0.00 | 0.00 | 52 | 1013.9 |
| 20260508164748 | 16 | 339 | 4.8 | 0.0 | 403.30 | 0.00 | 0.00 | 52 | 1013.9 |
| 20260508164025 | 16 | 233 | 8.0 | 0.0 | 403.30 | 0.00 | 0.00 | 50 | 1013.9 |
| 20260508163749 | 16 | 233 | 8.0 | 0.0 | 403.30 | 0.00 | 0.00 | 50 | 1013.9 |
| 20260508163247 | 16 | 269 | 6.4 | 0.0 | 403.30 | 0.00 | 0.00 | 49 | 1013.9 |
| 20260508162811 | 16 | 326 | 6.4 | 0.0 | 403.30 | 0.00 | 0.00 | 50 | 1013.9 |
| 20260508162249 | 16 | 326 | 6.4 | 0.0 | 403.30 | 0.00 | 0.00 | 50 | 1013.9 |
| 20260508161748 | 16 | 350 | 9.7 | 0.0 | 403.30 | 0.00 | 0.00 | 49 | 1013.9 |
| 20260508161248 | 16 | 330 | 14.5 | 0.0 | 403.30 | 0.00 | 0.00 | 48 | 1014.0 |
| 20260508161209 | 16 | 249 | 4.8 | 0.0 | 403.30 | 0.00 | 0.00 | 51 | 1013.9 |
| 20260508160748 | 16 | 281 | 14.5 | 0.0 | 403.30 | 0.00 | 0.00 | 47 | 1013.9 |
| 20260508160248 | 16 | 249 | 4.8 | 0.0 | 403.30 | 0.00 | 0.00 | 51 | 1013.9 |
| 20260508155348 | 15 | 345 | 11.3 | 0.0 | 403.30 | 0.00 | 0.00 | 55 | 1014.1 |
| 20260508155248 | 15 | 345 | 11.3 | 0.0 | 403.30 | 0.00 | 0.00 | 55 | 1014.1 |
| 20260508154747 | 15 | 238 | 8.0 | 0.0 | 403.30 | 0.00 | 0.00 | 57 | 1014.2 |
| 20260508154248 | 14 | 304 | 8.0 | 0.0 | 403.30 | 0.00 | 0.00 | 56 | 1014.2 |
| 20260508153747 | 14 | 280 | 9.7 | 0.0 | 403.30 | 0.00 | 0.00 | 58 | 1014.2 |
| 20260508153247 | 14 | 278 | 4.8 | 0.0 | 403.30 | 0.00 | 0.00 | 58 | 1014.1 |
| 20260508152833 | 13 | 266 | 6.4 | 0.0 | 403.30 | 0.00 | 0.00 | 60 | 1014.1 |
| 20260508152748 | 13 | 274 | 6.4 | 0.0 | 403.30 | 0.00 | 0.00 | 59 | 1014.2 |
| 20260508152247 | 13 | 266 | 6.4 | 0.0 | 403.30 | 0.00 | 0.00 | 60 | 1014.1 |
| 20260508152135 | 12 | 295 | 4.8 | 0.0 | 403.30 | 0.00 | 0.00 | 62 | 1014.3 |
| 20260508151747 | 13 | 276 | 4.8 | 0.0 | 403.30 | 0.00 | 0.00 | 61 | 1014.2 |
| 20260508151248 | 12 | 280 | 9.7 | 0.0 | 403.30 | 0.00 | 0.00 | 62 | 1014.1 |
| 20260508150747 | 12 | 295 | 4.8 | 0.0 | 403.30 | 0.00 | 0.00 | 62 | 1014.3 |
| 20260508150247 | 12 | 246 | 8.0 | 0.0 | 403.30 | 0.00 | 0.00 | 62 | 1014.3 |
| 20260508145748 | 12 | 46 | 1.6 | 0.0 | 403.30 | 0.00 | 0.00 | 62 | 1014.4 |
| 20260508145247 | 12 | 252 | 4.8 | 0.0 | 403.30 | 0.00 | 0.00 | 62 | 1014.5 |
| 20260508145013 | 12 | 269 | 4.8 | 0.0 | 403.30 | 0.00 | 0.00 | 63 | 1014.4 |
| 20260508144747 | 12 | 215 | 6.4 | 0.0 | 403.30 | 0.00 | 0.00 | 62 | 1014.4 |
| 20260508144248 | 12 | 269 | 4.8 | 0.0 | 403.30 | 0.00 | 0.00 | 63 | 1014.4 |
| 20260508143248 | 12 | 270 | 3.2 | 0.0 | 403.30 | 0.00 | 0.00 | 64 | 1014.4 |
| 20260508142749 | 12 | 217 | 4.8 | 0.0 | 403.30 | 0.00 | 0.00 | 64 | 1014.4 |
| 20260508142247 | 12 | 233 | 4.8 | 0.0 | 403.30 | 0.00 | 0.00 | 64 | 1014.3 |
| 20260508141747 | 11 | 269 | 4.8 | 0.0 | 403.30 | 0.00 | 0.00 | 64 | 1014.5 |
| 20260508141248 | 11 | 253 | 1.6 | 0.0 | 403.30 | 0.00 | 0.00 | 63 | 1014.6 |
| 20260508140747 | 11 | 256 | 6.4 | 0.0 | 403.30 | 0.00 | 0.00 | 63 | 1014.6 |
| 20260508140247 | 11 | 325 | 4.8 | 0.0 | 403.30 | 0.00 | 0.00 | 63 | 1014.5 |
| 20260508135748 | 11 | 302 | 6.4 | 0.0 | 403.30 | 0.00 | 0.00 | 63 | 1014.5 |
| 20260508135247 | 11 | 86 | 1.6 | 0.0 | 403.30 | 0.00 | 0.00 | 63 | 1014.4 |
| 20260508134747 | 11 | 267 | 1.6 | 0.0 | 403.30 | 0.00 | 0.00 | 64 | 1014.5 |
| 20260508134248 | 11 | 302 | 6.4 | 0.0 | 403.30 | 0.00 | 0.00 | 63 | 1014.5 |
| 20260508133747 | 11 | 281 | 11.3 | 0.0 | 403.30 | 0.00 | 0.00 | 64 | 1014.5 |
| 20260508133247 | 11 | 270 | 9.7 | 0.0 | 403.30 | 0.00 | 0.00 | 65 | 1014.5 |
| 20260508132748 | 11 | 297 | 8.0 | 0.0 | 403.30 | 0.00 | 0.00 | 65 | 1014.4 |
| 20260508132247 | 11 | 245 | 8.0 | 0.0 | 403.30 | 0.00 | 0.00 | 66 | 1014.4 |
| 20260508131747 | 11 | 243 | 6.4 | 0.0 | 403.30 | 0.00 | 0.00 | 65 | 1014.4 |
| 20260508131248 | 11 | 263 | 6.4 | 0.0 | 403.30 | 0.00 | 0.00 | 65 | 1014.4 |
| 20260508130747 | 11 | 301 | 3.2 | 0.0 | 403.30 | 0.00 | 0.00 | 65 | 1014.4 |
| 20260508130247 | 11 | 141 | 0.0 | 0.0 | 403.30 | 0.00 | 0.00 | 66 | 1014.4 |
| 20260508125747 | 11 | 311 | 8.0 | 0.0 | 403.30 | 0.00 | 0.00 | 66 | 1014.3 |
| 20260508125247 | 11 | 274 | 4.8 | 0.0 | 403.30 | 0.00 | 0.00 | 66 | 1014.3 |
| 20260508124747 | 11 | 301 | 9.7 | 0.0 | 403.30 | 0.00 | 0.00 | 66 | 1014.3 |
| 20260508124249 | 11 | 146 | 8.0 | 0.0 | 403.30 | 0.00 | 0.00 | 67 | 1014.3 |
| 20260508123747 | 11 | 271 | 8.0 | 0.0 | 403.30 | 0.00 | 0.00 | 67 | 1014.4 |
| 20260508123247 | 10 | 304 | 16.1 | 0.0 | 403.30 | 0.00 | 0.00 | 67 | 1014.3 |
| 20260508122748 | 10 | 335 | 4.8 | 0.0 | 403.30 | 0.00 | 0.00 | 69 | 1014.3 |
| 20260508122247 | 10 | 263 | 4.8 | 0.0 | 403.30 | 0.00 | 0.00 | 69 | 1014.2 |
| 20260508121747 | 10 | 30 | 1.6 | 0.0 | 403.30 | 0.00 | 0.00 | 72 | 1014.2 |
| 20260508121247 | 10 | 302 | 8.0 | 0.0 | 403.30 | 0.00 | 0.00 | 71 | 1014.2 |
| 20260508120747 | 10 | 285 | 6.4 | 0.0 | 403.30 | 0.00 | 0.00 | 70 | 1014.2 |
| 20260508120247 | 10 | 274 | 4.8 | 0.0 | 403.30 | 0.00 | 0.00 | 70 | 1014.2 |
| 20260508115747 | 10 | 273 | 9.7 | 0.0 | 403.30 | 0.00 | 0.00 | 70 | 1014.2 |
| 20260508115247 | 10 | 207 | 3.2 | 0.0 | 403.30 | 0.00 | 0.00 | 69 | 1014.2 |
| 20260508114747 | 9 | 266 | 4.8 | 0.0 | 403.30 | 0.00 | 0.00 | 68 | 1014.1 |
| 20260508114247 | 9 | 315 | 4.8 | 0.0 | 403.30 | 0.00 | 0.00 | 69 | 1014.2 |
| 20260508113747 | 9 | 262 | 3.2 | 0.0 | 403.30 | 0.00 | 0.00 | 68 | 1014.0 |
| 20260508113247 | 9 | 250 | 6.4 | 0.0 | 403.30 | 0.00 | 0.00 | 69 | 1014.0 |
| 20260508112247 | 9 | 293 | 0.0 | 0.0 | 403.30 | 0.00 | 0.00 | 69 | 1013.9 |
| 20260508111747 | 8 | 255 | 0.0 | 0.0 | 403.30 | 0.00 | 0.00 | 70 | 1013.8 |
| 20260508110747 | 8 | 270 | 4.8 | 0.0 | 403.30 | 0.00 | 0.00 | 71 | 1013.9 |
| 20260508105247 | 8 | 293 | 9.7 | 0.0 | 403.30 | 0.00 | 0.00 | 71 | 1013.8 |
| 20260508104747 | 8 | 1 | 1.6 | 0.0 | 403.30 | 0.00 | 0.00 | 71 | 1013.8 |
| 20260508104247 | 8 | 225 | 0.0 | 0.0 | 403.30 | 0.00 | 0.00 | 71 | 1013.9 |
| 20260508103747 | 8 | 281 | 6.4 | 0.0 | 403.30 | 0.00 | 0.00 | 71 | 1013.8 |
| 20260508103247 | 8 | 290 | 6.4 | 0.0 | 403.30 | 0.00 | 0.00 | 71 | 1013.8 |
| 20260508102747 | 8 | 239 | 3.2 | 0.0 | 403.30 | 0.00 | 0.00 | 71 | 1013.7 |
| 20260508102247 | 8 | 302 | 1.6 | 0.0 | 403.30 | 0.00 | 0.00 | 71 | 1013.7 |
| 20260508101747 | 8 | 308 | 9.7 | 0.0 | 403.30 | 0.00 | 0.00 | 71 | 1013.6 |
| 20260508101247 | 8 | 263 | 6.4 | 0.0 | 403.30 | 0.00 | 0.00 | 72 | 1013.6 |
| 20260508100747 | 8 | 330 | 4.8 | 0.0 | 403.30 | 0.00 | 0.00 | 71 | 1013.5 |
| 20260508100247 | 8 | 259 | 0.0 | 0.0 | 403.30 | 0.00 | 0.00 | 72 | 1013.5 |
| 20260508095747 | 8 | 281 | 3.2 | 0.0 | 403.30 | 0.00 | 0.00 | 72 | 1013.5 |
| 20260508095247 | 8 | 166 | 1.6 | 0.0 | 403.30 | 0.00 | 0.00 | 73 | 1013.6 |
| 20260508094747 | 8 | 246 | 1.6 | 0.0 | 403.30 | 0.00 | 0.00 | 73 | 1013.5 |
| 20260508094247 | 8 | 236 | 0.0 | 0.0 | 403.30 | 0.00 | 0.00 | 73 | 1013.5 |
| 20260508093747 | 8 | 236 | 0.0 | 0.0 | 403.30 | 0.00 | 0.00 | 73 | 1013.5 |
| 20260508093247 | 8 | 236 | 0.0 | 0.0 | 403.30 | 0.00 | 0.00 | 74 | 1013.5 |
| 20260508092247 | 8 | 278 | 3.2 | 0.0 | 403.30 | 0.00 | 0.00 | 74 | 1013.6 |
| 20260508091747 | 8 | 270 | 6.4 | 0.0 | 403.30 | 0.00 | 0.00 | 75 | 1013.7 |
| 20260508090747 | 8 | 236 | 0.0 | 0.0 | 403.30 | 0.00 | 0.00 | 76 | 1013.8 |
| 20260508090247 | 7 | 287 | 0.0 | 0.0 | 403.30 | 0.00 | 0.00 | 77 | 1013.7 |
| 20260508085747 | 7 | 248 | 0.0 | 0.0 | 403.30 | 0.00 | 0.00 | 77 | 1013.7 |
| 20260508085247 | 7 | 330 | 0.0 | 0.0 | 403.30 | 0.00 | 0.00 | 77 | 1013.8 |
| 20260508084747 | 7 | 263 | 0.0 | 0.0 | 403.30 | 0.00 | 0.00 | 78 | 1013.8 |
| 20260508084247 | 7 | 150 | 0.0 | 0.0 | 403.30 | 0.00 | 0.00 | 79 | 1013.8 |
| 20260508083747 | 7 | 211 | 0.0 | 0.0 | 403.30 | 0.00 | 0.00 | 79 | 1013.8 |
| 20260508083249 | 7 | 167 | 0.0 | 0.0 | 403.30 | 0.00 | 0.00 | 80 | 1013.7 |
| 20260508082747 | 8 | 167 | 0.0 | 0.0 | 403.30 | 0.00 | 0.00 | 80 | 1013.7 |
| 20260508082247 | 8 | 167 | 0.0 | 0.0 | 403.30 | 0.00 | 0.00 | 80 | 1013.7 |
| 20260508081747 | 8 | 167 | 0.0 | 0.0 | 403.30 | 0.00 | 0.00 | 79 | 1013.7 |
| 20260508081247 | 8 | 160 | 1.6 | 0.0 | 403.30 | 0.00 | 0.00 | 79 | 1013.8 |
| 20260508080747 | 8 | 336 | 0.0 | 0.0 | 403.30 | 0.00 | 0.00 | 80 | 1013.7 |
| 20260508080247 | 8 | 336 | 0.0 | 0.0 | 403.30 | 0.00 | 0.00 | 80 | 1013.7 |
| 20260508075850 | 8 | 336 | 0.0 | 0.0 | 403.30 | 0.00 | 0.00 | 80 | 1013.7 |
| 20260508075747 | 8 | 336 | 0.0 | 0.0 | 403.30 | 0.00 | 0.00 | 80 | 1013.7 |
| 20260508075247 | 8 | 336 | 0.0 | 0.0 | 403.30 | 0.00 | 0.00 | 80 | 1013.8 |
| 20260508074747 | 8 | 336 | 0.0 | 0.0 | 403.30 | 0.00 | 0.00 | 80 | 1013.8 |
| 20260508074247 | 8 | 336 | 0.0 | 0.0 | 403.30 | 0.00 | 0.00 | 80 | 1013.8 |
| 20260508073247 | 8 | 203 | 0.0 | 0.0 | 403.30 | 0.00 | 0.00 | 80 | 1013.8 |
| 20260508072747 | 8 | 203 | 0.0 | 0.0 | 403.30 | 0.00 | 0.00 | 80 | 1013.8 |
| 20260508072247 | 8 | 203 | 0.0 | 0.0 | 403.30 | 0.00 | 0.00 | 81 | 1013.8 |
| 20260508071747 | 9 | 203 | 0.0 | 0.0 | 403.30 | 0.00 | 0.00 | 81 | 1013.9 |
| 20260508071247 | 9 | 203 | 0.0 | 0.0 | 403.30 | 0.00 | 0.00 | 81 | 1013.9 |
| 20260508070747 | 9 | 203 | 0.0 | 0.0 | 403.30 | 0.00 | 0.00 | 82 | 1014.1 |
| 20260508070247 | 9 | 203 | 0.0 | 0.0 | 403.30 | 0.00 | 0.00 | 82 | 1014.2 |
| 20260508065747 | 9 | 203 | 0.0 | 0.0 | 403.30 | 0.00 | 0.00 | 81 | 1014.2 |
| 20260508065247 | 9 | 198 | 0.0 | 0.0 | 403.30 | 0.00 | 0.00 | 81 | 1014.2 |
| 20260508064747 | 9 | 198 | 0.0 | 0.0 | 403.30 | 0.00 | 0.00 | 81 | 1014.1 |
| 20260508063747 | 9 | 198 | 0.0 | 0.0 | 403.30 | 0.00 | 0.00 | 80 | 1014.2 |
| 20260508063247 | 10 | 134 | 0.0 | 0.0 | 403.30 | 0.00 | 0.00 | 79 | 1014.3 |
| 20260508062747 | 10 | 134 | 0.0 | 0.0 | 403.30 | 0.00 | 0.00 | 79 | 1014.2 |
| 20260508062418 | 10 | 134 | 0.0 | 0.0 | 403.30 | 0.00 | 0.00 | 78 | 1014.3 |
| 20260508062247 | 10 | 134 | 0.0 | 0.0 | 403.30 | 0.00 | 0.00 | 78 | 1014.3 |
| 20260508061747 | 10 | 165 | 3.2 | 0.0 | 403.30 | 0.00 | 0.00 | 77 | 1014.4 |
| 20260508061247 | 10 | 62 | 0.0 | 0.0 | 403.30 | 0.00 | 0.00 | 77 | 1014.4 |
| 20260508060851 | 10 | 91 | 0.0 | 0.0 | 403.30 | 0.00 | 0.00 | 75 | 1014.7 |
| 20260508060747 | 10 | 300 | 0.0 | 0.0 | 403.30 | 0.00 | 0.00 | 76 | 1014.8 |
| 20260508060247 | 10 | 91 | 0.0 | 0.0 | 403.30 | 0.00 | 0.00 | 75 | 1014.7 |
| 20260508055747 | 10 | 252 | 6.4 | 0.0 | 403.30 | 0.00 | 0.00 | 75 | 1015.0 |
| 20260508055458 | 10 | 267 | 0.0 | 0.0 | 403.30 | 0.00 | 0.00 | 75 | 1015.1 |
| 20260508055246 | 10 | 267 | 0.0 | 0.0 | 403.30 | 0.00 | 0.00 | 75 | 1015.1 |
| 20260508054749 | 10 | 62 | 1.6 | 0.0 | 403.30 | 0.00 | 0.00 | 74 | 1015.2 |
| 20260508054247 | 10 | 27 | 11.3 | 0.0 | 403.30 | 0.00 | 0.00 | 73 | 1015.3 |
| 20260508053746 | 10 | 255 | 3.2 | 0.0 | 403.30 | 0.00 | 0.00 | 75 | 1015.5 |
| 20260508053247 | 10 | 179 | 0.0 | 0.0 | 403.30 | 0.00 | 0.00 | 77 | 1015.2 |
| 20260508052747 | 10 | 179 | 0.0 | 0.0 | 403.30 | 0.00 | 0.00 | 77 | 1014.9 |
| 20260508052246 | 10 | 179 | 0.0 | 0.0 | 403.30 | 0.00 | 0.00 | 77 | 1014.6 |
| 20260508051746 | 10 | 179 | 0.0 | 0.0 | 403.30 | 0.00 | 0.00 | 77 | 1014.4 |
| 20260508051247 | 10 | 179 | 0.0 | 0.0 | 403.30 | 0.00 | 0.00 | 76 | 1014.4 |
| 20260508050746 | 10 | 179 | 0.0 | 0.0 | 403.30 | 0.00 | 0.00 | 76 | 1014.3 |
| 20260508050246 | 10 | 179 | 0.0 | 0.0 | 403.30 | 0.00 | 0.00 | 76 | 1014.3 |
| 20260508045747 | 10 | 179 | 0.0 | 0.0 | 403.30 | 0.00 | 0.00 | 76 | 1014.4 |
| 20260508045246 | 10 | 179 | 0.0 | 0.0 | 403.30 | 0.00 | 0.00 | 77 | 1014.4 |
| 20260508044746 | 10 | 179 | 0.0 | 0.0 | 403.30 | 0.00 | 0.00 | 76 | 1014.4 |
| 20260508044247 | 10 | 179 | 0.0 | 0.0 | 403.30 | 0.00 | 0.00 | 76 | 1014.4 |
| 20260508043746 | 10 | 179 | 0.0 | 0.0 | 403.30 | 0.00 | 0.00 | 76 | 1014.3 |
| 20260508043246 | 10 | 179 | 0.0 | 0.0 | 403.30 | 0.00 | 0.00 | 75 | 1014.3 |
| 20260508042247 | 10 | 179 | 0.0 | 0.0 | 403.30 | 0.00 | 0.00 | 75 | 1014.4 |
| 20260508041747 | 10 | 179 | 0.0 | 0.0 | 403.30 | 0.00 | 0.00 | 75 | 1014.4 |
| 20260508041247 | 10 | 191 | 0.0 | 0.0 | 403.30 | 0.00 | 0.00 | 75 | 1014.5 |
| 20260508040247 | 10 | 191 | 0.0 | 0.0 | 403.30 | 0.00 | 0.00 | 74 | 1014.5 |
| 20260508035747 | 10 | 191 | 0.0 | 0.0 | 403.30 | 0.00 | 0.00 | 74 | 1014.6 |
| 20260508035247 | 10 | 191 | 0.0 | 0.0 | 403.30 | 0.00 | 0.00 | 74 | 1014.6 |
| 20260508034247 | 10 | 191 | 0.0 | 0.0 | 403.30 | 0.00 | 0.00 | 73 | 1014.5 |
| 20260508033747 | 10 | 191 | 0.0 | 0.0 | 403.30 | 0.00 | 0.00 | 72 | 1014.5 |
| 20260508033247 | 10 | 191 | 0.0 | 0.0 | 403.30 | 0.00 | 0.00 | 72 | 1014.5 |
| 20260508032747 | 10 | 129 | 0.0 | 0.0 | 403.30 | 0.00 | 0.00 | 72 | 1014.5 |
| 20260508032246 | 10 | 349 | 0.0 | 0.0 | 403.30 | 0.00 | 0.00 | 72 | 1014.5 |
| 20260508031746 | 10 | 359 | 1.6 | 0.0 | 403.30 | 0.00 | 0.00 | 71 | 1014.4 |
| 20260508031247 | 10 | 200 | 0.0 | 0.0 | 403.30 | 0.00 | 0.00 | 72 | 1014.5 |
| 20260508030746 | 10 | 187 | 0.0 | 0.0 | 403.30 | 0.00 | 0.00 | 72 | 1014.5 |
| 20260508030246 | 10 | 187 | 0.0 | 0.0 | 403.30 | 0.00 | 0.00 | 71 | 1014.6 |
| 20260508025747 | 10 | 187 | 0.0 | 0.0 | 403.30 | 0.00 | 0.00 | 70 | 1014.7 |
| 20260508025246 | 10 | 187 | 0.0 | 0.0 | 403.30 | 0.00 | 0.00 | 68 | 1014.8 |
| 20260508024746 | 10 | 187 | 0.0 | 0.0 | 403.30 | 0.00 | 0.00 | 68 | 1014.6 |
| 20260508024247 | 10 | 312 | 0.0 | 0.0 | 403.30 | 0.00 | 0.00 | 67 | 1014.5 |
| 20260508023746 | 11 | 312 | 0.0 | 0.0 | 403.30 | 0.00 | 0.00 | 68 | 1014.5 |
| 20260508023246 | 11 | 312 | 0.0 | 0.0 | 403.30 | 0.00 | 0.00 | 67 | 1014.5 |
| 20260508022749 | 11 | 312 | 0.0 | 0.0 | 403.30 | 0.00 | 0.00 | 67 | 1014.4 |
| 20260508022246 | 11 | 312 | 0.0 | 0.0 | 403.30 | 0.00 | 0.00 | 66 | 1014.4 |
| 20260508021746 | 11 | 312 | 0.0 | 0.0 | 403.30 | 0.00 | 0.00 | 66 | 1014.4 |
| 20260508021247 | 11 | 312 | 0.0 | 0.0 | 403.30 | 0.00 | 0.00 | 65 | 1014.4 |
| 20260508020746 | 11 | 312 | 0.0 | 0.0 | 403.30 | 0.00 | 0.00 | 65 | 1014.3 |
| 20260508020247 | 11 | 312 | 0.0 | 0.0 | 403.30 | 0.00 | 0.00 | 65 | 1014.3 |
| 20260508015747 | 11 | 312 | 0.0 | 0.0 | 403.30 | 0.00 | 0.00 | 67 | 1014.3 |
| 20260508014746 | 11 | 193 | 3.2 | 0.0 | 403.30 | 0.00 | 0.00 | 62 | 1014.3 |
| 20260508014247 | 12 | 193 | 0.0 | 0.0 | 403.30 | 0.00 | 0.00 | 65 | 1014.5 |
| 20260508013746 | 12 | 270 | 3.2 | 0.0 | 403.30 | 0.00 | 0.00 | 63 | 1014.4 |
| 20260508012747 | 12 | 214 | 0.0 | 0.0 | 403.30 | 0.00 | 0.00 | 68 | 1014.4 |
| 20260508012246 | 12 | 263 | 0.0 | 0.0 | 403.30 | 0.00 | 0.00 | 62 | 1014.3 |
| 20260508011748 | 12 | 294 | 0.0 | 0.0 | 403.30 | 0.00 | 0.00 | 59 | 1014.2 |
| 20260508011247 | 12 | 294 | 0.0 | 0.0 | 403.30 | 0.00 | 0.00 | 56 | 1014.2 |
| 20260508010746 | 12 | 294 | 0.0 | 0.0 | 403.30 | 0.00 | 0.00 | 57 | 1014.1 |
| 20260508010247 | 12 | 294 | 0.0 | 0.0 | 403.30 | 0.00 | 0.00 | 57 | 1014.2 |
| 20260508005747 | 13 | 294 | 0.0 | 0.0 | 403.30 | 0.00 | 0.00 | 55 | 1014.2 |
| 20260508005246 | 13 | 294 | 0.0 | 0.0 | 403.30 | 0.00 | 0.00 | 53 | 1014.2 |
| 20260508004746 | 13 | 294 | 0.0 | 0.0 | 403.30 | 0.00 | 0.00 | 53 | 1014.2 |
| 20260508002746 | 14 | 294 | 0.0 | 0.0 | 403.30 | 0.00 | 0.00 | 48 | 1014.1 |
| 20260508002246 | 14 | 294 | 0.0 | 0.0 | 403.30 | 0.00 | 0.00 | 49 | 1014.0 |
| 20260508001746 | 15 | 294 | 0.0 | 0.0 | 403.30 | 0.00 | 0.00 | 48 | 1014.0 |
| 20260508001246 | 15 | 294 | 0.0 | 0.0 | 403.30 | 0.00 | 0.00 | 46 | 1013.9 |
| 20260508000246 | 15 | 294 | 0.0 | 0.0 | 403.30 | 0.00 | 0.00 | 43 | 1013.8 |
| 20260507235748 | 16 | 294 | 0.0 | 0.0 | 403.30 | 0.00 | 0.00 | 42 | 1013.8 |
| 20260507234746 | 16 | 294 | 0.0 | 0.0 | 403.30 | 0.00 | 0.00 | 42 | 1013.7 |
| 20260507234247 | 16 | 294 | 0.0 | 0.0 | 403.30 | 0.00 | 0.00 | 39 | 1013.7 |
| 20260507233246 | 16 | 248 | 0.0 | 0.0 | 403.30 | 0.00 | 0.00 | 39 | 1013.7 |
| 20260507232746 | 16 | 280 | 1.6 | 0.0 | 403.30 | 0.00 | 0.00 | 37 | 1013.7 |
| 20260507232246 | 17 | 177 | 0.0 | 0.0 | 403.30 | 0.00 | 0.00 | 36 | 1013.6 |
| 20260507231746 | 17 | 269 | 3.2 | 0.0 | 403.30 | 0.00 | 0.00 | 35 | 1013.7 |
| 20260507231247 | 17 | 298 | 6.4 | 0.0 | 403.30 | 0.00 | 0.00 | 35 | 1013.7 |
| 20260507230246 | 17 | 266 | 4.8 | 0.0 | 403.30 | 0.00 | 0.00 | 36 | 1013.7 |
| 20260507225747 | 17 | 11 | 1.6 | 0.0 | 403.30 | 0.00 | 0.00 | 36 | 1013.7 |
| 20260507225246 | 17 | 322 | 9.7 | 0.0 | 403.30 | 0.00 | 0.00 | 36 | 1013.8 |
| 20260507224746 | 17 | 267 | 6.4 | 0.0 | 403.30 | 0.00 | 0.00 | 35 | 1013.8 |
| 20260507224247 | 17 | 248 | 9.7 | 0.0 | 403.30 | 0.00 | 0.00 | 36 | 1013.9 |
| 20260507223746 | 17 | 8 | 1.6 | 0.0 | 403.30 | 0.00 | 0.00 | 37 | 1013.9 |
| 20260507223246 | 17 | 10 | 6.4 | 0.0 | 403.30 | 0.00 | 0.00 | 36 | 1014.0 |
| 20260507222929 | 17 | 271 | 4.8 | 0.0 | 403.30 | 0.00 | 0.00 | 37 | 1014.0 |
| 20260507222747 | 17 | 323 | 8.0 | 0.0 | 403.30 | 0.00 | 0.00 | 37 | 1014.0 |
| 20260507222246 | 17 | 271 | 4.8 | 0.0 | 403.30 | 0.00 | 0.00 | 37 | 1014.0 |
| 20260507222039 | 16 | 290 | 3.2 | 0.0 | 403.30 | 0.00 | 0.00 | 35 | 1014.1 |
| 20260507221247 | 16 | 290 | 3.2 | 0.0 | 403.30 | 0.00 | 0.00 | 35 | 1014.1 |
| 20260507220746 | 16 | 328 | 9.7 | 0.0 | 403.30 | 0.00 | 0.00 | 35 | 1014.1 |
| 20260507215747 | 16 | 311 | 6.4 | 0.0 | 403.30 | 0.00 | 0.00 | 37 | 1014.0 |
| 20260507215606 | 17 | 323 | 11.3 | 0.0 | 403.30 | 0.00 | 0.00 | 35 | 1014.0 |
| 20260507215246 | 17 | 323 | 11.3 | 0.0 | 403.30 | 0.00 | 0.00 | 35 | 1014.0 |
| 20260507214746 | 17 | 276 | 11.3 | 0.0 | 403.30 | 0.00 | 0.00 | 36 | 1013.9 |
| 20260507213746 | 17 | 301 | 19.3 | 0.0 | 403.30 | 0.00 | 0.00 | 39 | 1013.9 |
| 20260507213246 | 16 | 280 | 9.7 | 0.0 | 403.30 | 0.00 | 0.00 | 39 | 1013.8 |
| 20260507212746 | 16 | 14 | 6.4 | 0.0 | 403.30 | 0.00 | 0.00 | 39 | 1013.9 |
| 20260507212246 | 17 | 311 | 9.7 | 0.0 | 403.30 | 0.00 | 0.00 | 37 | 1013.9 |
| 20260507211746 | 17 | 335 | 3.2 | 0.0 | 403.30 | 0.00 | 0.00 | 36 | 1013.8 |
| 20260507211246 | 17 | 210 | 3.2 | 0.0 | 403.30 | 0.00 | 0.00 | 37 | 1013.8 |
| 20260507210746 | 16 | 55 | 4.8 | 0.0 | 403.30 | 0.00 | 0.00 | 38 | 1013.7 |
| 20260507210246 | 16 | 349 | 8.0 | 0.0 | 403.30 | 0.00 | 0.00 | 38 | 1013.7 |
| 20260507205746 | 16 | 239 | 0.0 | 0.0 | 403.30 | 0.00 | 0.00 | 38 | 1013.7 |
| 20260507205246 | 16 | 318 | 4.8 | 0.0 | 403.30 | 0.00 | 0.00 | 36 | 1013.8 |
| 20260507204746 | 16 | 300 | 8.0 | 0.0 | 403.30 | 0.00 | 0.00 | 36 | 1013.8 |
| 20260507204246 | 17 | 246 | 4.8 | 0.0 | 403.30 | 0.00 | 0.00 | 39 | 1013.8 |
| 20260507203746 | 16 | 359 | 3.2 | 0.0 | 403.30 | 0.00 | 0.00 | 34 | 1013.8 |
| 20260507203246 | 16 | 231 | 9.7 | 0.0 | 403.30 | 0.00 | 0.00 | 38 | 1013.7 |
| 20260507202813 | 16 | 352 | 14.5 | 0.0 | 403.30 | 0.00 | 0.00 | 35 | 1013.7 |
| 20260507202752 | 17 | 255 | 4.8 | 0.0 | 403.30 | 0.00 | 0.00 | 37 | 1013.7 |
| 20260507202746 | 16 | 0 | 8.0 | 0.0 | 403.30 | 0.00 | 0.00 | 39 | 1013.7 |
| 20260507202246 | 16 | 352 | 14.5 | 0.0 | 403.30 | 0.00 | 0.00 | 35 | 1013.7 |
| 20260507201746 | 17 | 255 | 4.8 | 0.0 | 403.30 | 0.00 | 0.00 | 37 | 1013.7 |
| 20260507201615 | 17 | 288 | 12.9 | 0.0 | 403.30 | 0.00 | 0.00 | 40 | 1013.7 |
| 20260507201246 | 17 | 288 | 12.9 | 0.0 | 403.30 | 0.00 | 0.00 | 40 | 1013.7 |
| 20260507200746 | 16 | 311 | 6.4 | 0.0 | 403.30 | 0.00 | 0.00 | 43 | 1013.9 |
| 20260507195746 | 15 | 25 | 6.4 | 0.0 | 403.30 | 0.00 | 0.00 | 38 | 1013.8 |
| 20260507195246 | 16 | 6 | 6.4 | 0.0 | 403.30 | 0.00 | 0.00 | 39 | 1013.8 |
| 20260507194746 | 16 | 21 | 1.6 | 0.0 | 403.30 | 0.00 | 0.00 | 40 | 1013.8 |
| 20260507193746 | 16 | 179 | 3.2 | 0.0 | 403.30 | 0.00 | 0.00 | 38 | 1014.0 |
| 20260507193246 | 16 | 113 | 4.8 | 0.0 | 403.30 | 0.00 | 0.00 | 41 | 1014.1 |
| 20260507192746 | 16 | 252 | 22.5 | 0.0 | 403.30 | 0.00 | 0.00 | 40 | 1014.1 |
| 20260507192246 | 16 | 330 | 22.5 | 0.0 | 403.30 | 0.00 | 0.00 | 39 | 1014.1 |
| 20260507191746 | 16 | 34 | 8.0 | 0.0 | 403.30 | 0.00 | 0.00 | 41 | 1014.1 |
| 20260507190746 | 16 | 339 | 11.3 | 0.0 | 403.30 | 0.00 | 0.00 | 41 | 1014.2 |
| 20260507190246 | 16 | 278 | 11.3 | 0.0 | 403.30 | 0.00 | 0.00 | 41 | 1014.1 |
| 20260507185746 | 16 | 298 | 11.3 | 0.0 | 403.30 | 0.00 | 0.00 | 42 | 1014.2 |
| 20260507185246 | 16 | 350 | 9.7 | 0.0 | 403.30 | 0.00 | 0.00 | 39 | 1014.3 |
| 20260507184746 | 16 | 359 | 17.7 | 0.0 | 403.30 | 0.00 | 0.00 | 39 | 1014.2 |
| 20260507184246 | 16 | 330 | 14.5 | 0.0 | 403.30 | 0.00 | 0.00 | 41 | 1014.2 |
| 20260507183247 | 16 | 218 | 4.8 | 0.0 | 403.30 | 0.00 | 0.00 | 41 | 1014.2 |
| 20260507182746 | 16 | 323 | 11.3 | 0.0 | 403.30 | 0.00 | 0.00 | 43 | 1014.3 |
| 20260507182246 | 15 | 301 | 17.7 | 0.0 | 403.30 | 0.00 | 0.00 | 44 | 1014.3 |
| 20260507181746 | 15 | 276 | 4.8 | 0.0 | 403.30 | 0.00 | 0.00 | 43 | 1014.3 |
| 20260507181246 | 15 | 312 | 9.7 | 0.0 | 403.30 | 0.00 | 0.00 | 45 | 1014.3 |
| 20260507180746 | 15 | 305 | 12.9 | 0.0 | 403.30 | 0.00 | 0.00 | 44 | 1014.4 |
| 20260507180247 | 14 | 250 | 1.6 | 0.0 | 403.30 | 0.00 | 0.00 | 46 | 1014.3 |